TimeCDT,TemperatureF,Dew PointF,Humidity,Sea Level PressureIn,VisibilityMPH,Wind Direction,Wind SpeedMPH,Gust SpeedMPH,PrecipitationIn,Events,Conditions,WindDirDegrees,DateUTC
12:54 AM,55.0,43.0,64,29.98,10.0,SE,4.6,-,N/A,,Clear,130,2013-09-30 05:54:00
1:54 AM,53.1,42.1,66,29.96,10.0,SE,6.9,-,N/A,,Clear,130,2013-09-30 06:54:00
3:54 AM,52.0,41.0,66,29.94,10.0,SE,3.5,-,N/A,,Clear,130,2013-09-30 08:54:00
4:54 AM,52.0,41.0,66,29.96,10.0,Calm,Calm,-,N/A,,Clear,0,2013-09-30 09:54:00
5:54 AM,50.0,42.1,74,29.96,10.0,ESE,3.5,-,N/A,,Clear,110,2013-09-30 10:54:00
6:54 AM,48.9,42.1,77,29.96,10.0,SE,8.1,-,N/A,,Clear,140,2013-09-30 11:54:00
7:54 AM,52.0,44.1,74,29.96,10.0,SE,6.9,-,N/A,,Clear,130,2013-09-30 12:54:00
8:54 AM,59.0,46.0,62,29.97,10.0,SSE,5.8,-,N/A,,Clear,150,2013-09-30 13:54:00
9:54 AM,66.0,46.0,48,29.97,10.0,SSE,8.1,-,N/A,,Clear,160,2013-09-30 14:54:00
10:54 AM,70.0,51.1,51,29.95,10.0,South,12.7,-,N/A,,Clear,180,2013-09-30 15:54:00
11:54 AM,72.0,54.0,53,29.94,10.0,SSW,15.0,-,N/A,,Clear,200,2013-09-30 16:54:00
12:54 PM,73.0,55.0,53,29.92,10.0,South,11.5,-,N/A,,Clear,170,2013-09-30 17:54:00
1:54 PM,75.0,55.0,50,29.90,10.0,South,10.4,16.1,N/A,,Partly Cloudy,170,2013-09-30 18:54:00
2:54 PM,75.9,55.0,48,29.88,10.0,SSW,13.8,-,N/A,,Clear,200,2013-09-30 19:54:00
3:54 PM,75.9,55.0,48,29.86,10.0,South,11.5,-,N/A,,Clear,190,2013-09-30 20:54:00
4:54 PM,75.9,57.0,52,29.86,10.0,South,9.2,-,N/A,,Clear,170,2013-09-30 21:54:00
5:54 PM,75.0,57.0,53,29.87,10.0,SSW,11.5,-,N/A,,Clear,210,2013-09-30 22:54:00
6:54 PM,70.0,57.0,63,29.88,10.0,South,8.1,-,N/A,,Clear,190,2013-09-30 23:54:00
7:54 PM,66.9,57.0,70,29.88,10.0,South,8.1,-,N/A,,Clear,190,2013-10-01 00:54:00
8:54 PM,64.9,57.0,75,29.88,10.0,South,5.8,-,N/A,,Clear,170,2013-10-01 01:54:00
9:54 PM,64.0,57.9,80,29.88,10.0,SSE,6.9,-,N/A,,Clear,160,2013-10-01 02:54:00
10:54 PM,64.9,57.9,78,29.88,10.0,South,9.2,-,N/A,,Clear,170,2013-10-01 03:54:00
11:54 PM,64.0,57.9,80,29.88,10.0,South,9.2,-,N/A,,Clear,180,2013-10-01 04:54:00